SCP
-0 -0 -0 -0 -0 -0 -0 -0 0 0 0 0 0 0 0 0 0 0 0 0 0 0 0 0 0 0 0 0 0 0 0 0 0 0 0 0 0 0 0 0 0 0 0
-0 -0 -0 -0 -0 -0 -0 -0 -0 -0 -0 -0 0 0 0 0 0 0 0 0 0 0 0 0 0 0 0 0 0 0 0 0 0 0 0 0 0 0 0 0 0 0 0
-0 -0 -0 -0 -0 -0 -0 -0 -0 -0 -0 -0 -0 -0 0 0 0 0 0 0 0 0 0 0 0 0 0 0 0 0 0 0 0 0 0 0 0 0 0 0 0 0 0
-0 -0 -0 -0 -0 -0 -0 -0 -0 -0 -0 -0 -0 -0 0 0 0 0 0 0 0 0 0 0 0 0 0 0 0 0 0 0 0 0 0 0 0 0 0 0 0 0 0
-0 -0 0 0 0 0 0 -0 0 0 0 -0 -0 0 0 0 0 0 0 0 0 0 0 0 0 0 0 0 0 0 0 0 0 0 0 0 0 0 0 0 0 0 0
0 0 0 0 0 0 0 0 0 0 0 -0 0 0 0 0 0 0 0 0 0 0 0 0 0 0 0 0 0 0 0 0 0 0 0 0 0 0 0 0 0 0 0
0 0 0 0 0 0 0 0 0 0 0 -0 0 0 0 0 0 0 0 0 0 0 0 0 0 0 0 0 0 0 0 0 0 0 0 0 0 0 0 0 0 0 0
0 0 0 0 0 0 0 0 0 0 0 0 0 0 0 0 0 0 0 0 0 0 0 0 0 0 0 0 0 0 0 0 0 0 0 0 0 0 0 0 0 0 0
0 0 0 0 0 0 0 0 0 0 0 0 0 0 0 0 0 0 0 0 0 0 0 0 0 0 0 0 0 0 0 0 0 0 0 0 0 0 0 0 0 0 0
0 0 0 0 0 0 0 0 0 0 0 0 0 0 0 0 0 0 0 0 0 0 0 0 0 0 0 0 0 0 0 0 0 0 0 0 0 0 0 0 0 0 0
0 0 0 0 0 0 0 0 0 0 0 0 0 0 0 0 0 -0 0 0 0 0 0 0 0 -0 0 -0 -0 0 0 0 0 0 0 0 0 0 0 0 0 0 0
0 0 0 0 0 0 0 0 0 0 0 0 0 0 0 0 -0 -0 0 0 0 0 0 0 0 0 0 -0 -0 0 0 0 0 0 0 0 0 0 0 0 0 0 0
0 0 0 0 0 0 0 0 0 0 0 0 0 0 0 0 0 0 0 0 0 0 0 0 0 0 0 0 0 0 0 0 0 0 0 0 0 0 0 0 0 0 0
0 0 0 0 0 0 0 0 0 0 0 0 0 0 0 0 0 0 0 0 0 0 0 0 0 0 0 0 0 0 0 0 0 0 0 0 0 0 0 0 0 0 0
0 0 0 0 0 0 0 0 0 0 0 0 0 0 0 0 0 0 0 0 0 0 0 0 0 0 0 0 0 0 0 0 0 0 0 0 0 0 0 0 0 0 0
0 0 0 0 0 0 0 0 0 0 -0 -0 -0 0 0 0 0 0 0 0 0 0 0 0 0 0 0 0 0 0 0 0 0 0 0 0 0 0 0 0 0 0 0
0 0 0 0 0 0 0 0 0 0 0 0 0 0 0 -0 -0 0 0 0 0 0 0 0 0 0 0 0 0 0 0 0 0 0 0 0 0 0 0 0 0 0 0
0 0 0 0 0 0 0 0 0 0 0 0 0 0 0 -0 -0 -0 0 0 0 0 0 0 0 0 0 0 0 0 0 0 0 0 0 0 0 0 0 0 0 0 0
0 0 0 0 0 0 0 0 0 0 0 0 0 0 0 -0 0 -0 0 0 0 0 0 0 0 0 0 0 0 0 0 0 0 0 0 0 0 0 0 0 0 0 0
0 0 0 0 0 0 0 0 0 0 0 0 0 0 0 0 0 0 0 0 0 0 0 0 0 0 0 0 0 0 0 0 0 0 0 0 0 0 0 0 0 0 0
0 0 0 0 0 0 0 0 0 0 0 0 0 0 -0 0 0 0 0 0 0 0 0 0 0 0 0 0 0 0 0 0 0 0 0 0 0 0 0 0 0 0 0
0 0 0 0 0 0 0 0 0 0 0 0 0 0 0 -0 -0 -0 0 0 0 0 0 0 0 0 0 0 0 0 0 0 0 0 0 0 0 0 0 0 0 0 0
0 0 0 0 0 0 0 0 0 0 0 0 0 0 0 0 0 0 -0 -0 -0 -0 0 0 0 0 0 0 0 0 0 0 0 0 0 0 0 0 0 0 0 0 0
0 0 0 0 0 0 0 0 0 0 0 0 0 0 0 0 0 0 0 -0 -0 -0 -0 0 0 0 0 0 0 0 0 0 0 0 0 0 0 0 0 0 0 0 0
0 0 0 0 0 0 0 0 0 0 0 0 0 0 0 0 0 0 0 0 -0 -0 -0 -0 0 0 0 0 0 0 0 0 0 0 0 0 0 0 0 0 0 0 0
0 0 0 0 0 0 0 0 0 0 0 0 0 0 0 0 0 0 -0 -0 -0 -0 -0 -0 -0 -0 0 0 0 0 0 0 0 0 0 0 0 0 0 0 0 0 0
Wind_Speed_500mb
45 47 47 50 52 51 49 48 50 51 50 51 50 51 51 52 46 48 59 66 71 79 85 93 101 100 107 113 114 117 118 107 104 90 89 82 79 78 79 79 78 78 72
55 51 51 53 54 57 60 59 59 59 57 56 55 56 58 57 56 54 53 59 70 78 83 88 94 95 103 108 112 121 120 114 109 98 96 95 86 82 81 80 83 81 78
55 58 58 60 64 66 69 68 67 69 68 67 66 62 60 60 60 58 59 58 61 73 83 89 95 95 98 104 110 120 124 122 119 112 101 99 95 90 87 86 86 84 83
62 64 66 68 72 76 80 85 86 85 84 79 72 69 69 67 63 62 60 62 63 65 74 86 90 96 103 99 103 114 119 118 118 120 117 111 106 101 93 92 92 94 91
71 72 74 78 80 85 87 89 90 90 90 90 92 86 77 74 75 70 68 69 68 71 72 76 85 92 96 103 106 107 113 115 113 122 123 121 117 111 110 103 101 95 94
69 79 86 86 91 93 94 93 94 93 93 94 97 97 97 93 85 83 78 76 77 77 79 79 80 85 91 96 104 108 107 116 115 113 123 133 135 130 117 112 102 102 97
65 84 88 93 97 98 97 98 98 100 103 105 105 104 106 105 104 100 93 91 87 87 85 84 85 85 87 90 97 103 110 119 122 117 123 133 130 141 131 119 113 105 105
76 76 77 85 92 98 102 106 109 111 115 117 119 121 121 120 115 114 111 103 104 101 95 91 87 87 85 87 90 98 105 115 128 128 125 119 122 125 133 128 121 112 105
80 78 77 77 82 89 94 101 108 107 115 127 129 130 132 136 133 126 113 105 112 115 107 102 94 90 88 81 86 99 104 111 111 125 126 112 117 116 114 114 115 109 103
92 83 84 88 91 93 97 100 97 94 102 102 111 119 128 143 142 136 115 96 97 114 116 110 104 96 88 79 80 93 102 114 99 102 111 114 109 114 116 115 114 120 114
99 106 109 106 105 104 104 106 112 116 122 126 123 129 127 131 143 133 103 85 93 102 106 110 106 99 90 80 76 81 107 103 88 89 103 102 110 112 113 110 112 108 116
106 108 110 111 110 109 106 105 98 90 94 100 102 112 112 107 101 94 88 82 84 89 100 100 99 85 78 75 72 80 78 97 87 90 95 98 110 119 110 111 109 102 102
106 108 108 105 100 93 88 88 87 82 80 86 86 91 96 92 93 86 81 83 81 86 96 94 86 80 77 78 76 75 74 91 93 94 103 108 111 104 110 108 98 101 96
102 104 101 94 94 89 84 82 81 80 81 80 82 87 91 92 91 87 79 75 75 44 70 80 85 84 77 84 81 76 80 84 100 101 101 101 100 97 104 103 107 102 92
97 98 97 91 88 88 86 82 80 83 83 87 90 93 93 94 88 87 84 85 78 76 75 71 77 70 64 70 73 80 79 81 96 99 96 94 90 96 95 100 102 105 100
90 88 87 88 87 87 89 92 78 74 76 77 82 87 97 97 94 91 88 86 82 77 84 92 86 69 70 64 69 77 84 79 91 98 94 92 92 92 93 90 94 96 99
83 84 84 84 85 85 86 87 94 94 77 77 78 79 81 86 83 81 78 76 73 70 84 83 79 75 75 67 71 78 79 77 81 82 89 91 93 95 98 99 94 92 91
81 81 80 81 82 84 86 89 89 92 97 100 94 79 75 74 72 71 68 67 72 72 72 77 80 74 74 67 68 70 70 73 77 81 95 100 95 101 100 92 94 92 85
80 80 76 77 78 80 82 86 87 87 88 92 99 86 72 61 59 59 55 59 69 71 65 60 65 67 61 62 64 64 69 73 79 90 95 95 96 97 90 85 85 84 85
76 75 74 73 74 74 76 79 83 85 84 82 81 76 76 70 81 80 71 58 44 54 46 49 52 54 55 59 52 57 67 72 80 85 88 87 84 82 81 82 83 82 74
74 70 66 67 69 68 72 73 72 70 70 73 72 66 58 60 58 54 49 49 41 32 36 43 42 40 50 47 45 57 64 69 75 76 76 71 68 70 73 76 73 67 61
65 65 63 62 62 63 63 60 60 62 59 59 59 56 49 45 46 44 37 25 12 13 16 11 25 39 45 37 40 52 58 62 64 64 62 60 60 66 68 61 59 59 59
61 61 59 58 57 58 58 56 55 54 54 53 50 49 45 40 34 29 24 21 18 12 4 14 27 35 36 33 33 37 42 47 52 54 57 58 59 62 60 62 62 56 49
59 58 56 55 57 58 56 57 55 54 51 50 49 46 44 39 34 28 24 20 15 11 5 3 9 13 16 16 17 19 24 31 40 44 48 54 57 58 58 55 51 45 40
56 55 54 55 56 57 58 59 58 56 55 54 52 50 47 43 39 35 31 27 24 22 23 20 18 14 11 11 12 14 18 21 29 37 44 49 54 54 52 47 43 38 31
50 52 52 53 54 55 58 61 61 60 59 58 57 57 56 54 52 48 44 38 35 34 32 31 28 24 25 26 25 26 27 30 36 38 41 45 46 43 40 37 32 27 23
Wind_Direction_500mb
352 350 349 348 348 345 343 340 336 332 329 327 332 330 322 317 310 290 281 278 273 268 264 264 263 260 254 250 249 248 245 239 241 245 247 246 244 244 241 238 235 235 235
343 341 339 338 336 334 331 331 329 329 329 332 333 326 321 320 315 309 294 282 279 274 270 265 263 261 256 253 249 247 246 240 238 238 242 243 240 243 243 239 235 235 233
331 329 328 327 324 323 322 321 321 321 323 326 326 323 321 319 317 314 308 298 282 275 271 268 266 263 260 254 251 248 248 246 242 237 237 240 241 238 238 233 233 234 233
325 322 320 319 317 316 316 316 317 318 319 319 316 313 313 313 313 314 313 308 301 287 275 270 268 262 260 256 251 249 248 246 244 240 235 237 239 237 234 231 230 229 231
322 319 318 314 313 313 312 311 309 308 307 308 307 307 305 305 307 310 311 310 308 301 294 281 272 266 262 259 254 250 247 244 242 239 234 233 232 227 226 231 230 231 234
313 313 313 312 311 310 309 308 305 304 303 301 300 301 301 301 300 302 303 304 304 304 300 293 286 275 267 259 255 253 248 247 242 236 235 233 234 234 231 231 229 225 225
295 302 307 308 307 306 307 305 303 302 301 300 298 297 296 296 297 297 297 297 297 297 298 297 291 285 276 266 258 251 249 248 248 244 241 241 235 235 234 232 230 232 235
299 297 296 300 301 301 301 299 297 296 294 293 292 292 292 290 290 292 293 292 291 291 291 292 292 286 283 272 261 257 253 247 245 244 242 246 246 248 242 241 240 237 232
304 301 297 294 291 290 289 288 289 290 290 290 288 287 287 285 285 285 287 286 286 286 287 287 288 287 281 281 263 256 256 255 250 246 244 244 246 246 246 237 229 224 223
310 303 295 292 289 288 286 286 287 285 283 283 283 284 285 285 282 283 285 283 279 281 282 284 284 282 281 278 271 252 249 252 248 243 241 237 237 239 241 242 239 229 225
306 304 302 299 295 292 288 285 282 281 279 280 281 282 282 284 287 286 285 279 274 274 276 277 278 279 280 275 276 264 252 253 244 239 240 237 230 231 232 233 236 235 228
310 309 307 305 304 305 305 303 300 292 286 284 283 283 284 286 286 285 283 279 272 268 267 270 273 273 271 265 264 260 261 250 239 236 230 223 223 225 225 224 228 226 230
312 311 310 310 311 311 310 308 305 300 291 288 286 285 286 286 286 287 283 281 277 266 261 262 266 269 267 264 263 260 252 244 232 233 226 224 222 221 220 223 222 222 221
314 315 316 314 314 313 310 305 298 293 289 287 286 286 287 287 287 288 286 282 265 278 264 259 265 268 265 262 263 258 242 239 236 230 225 222 221 214 218 218 217 214 208
320 318 315 314 313 309 306 302 298 296 293 292 290 289 288 287 288 290 288 285 285 279 279 282 278 278 270 261 256 245 239 238 231 226 221 215 211 211 207 209 208 211 206
317 318 318 316 314 312 310 307 306 295 293 291 289 288 289 287 288 286 283 278 274 271 271 271 272 266 270 269 252 238 235 238 231 225 219 211 207 200 199 197 200 206 202
324 322 321 320 316 312 309 304 302 309 302 298 296 295 292 290 288 286 283 279 273 267 263 265 265 266 262 264 252 239 237 237 226 219 207 207 205 200 205 205 207 206 205
328 326 324 323 319 317 314 309 305 302 302 304 314 304 300 298 293 289 285 280 271 262 266 256 259 263 254 262 250 241 232 228 224 216 212 211 208 209 203 203 205 202 200
332 330 328 326 324 321 320 317 311 305 302 303 312 322 326 314 303 297 292 276 269 267 257 257 258 246 257 255 241 237 237 227 218 209 202 202 202 205 203 207 204 198 196
337 335 333 329 328 327 323 318 316 313 313 315 321 330 335 335 328 327 325 317 301 273 272 263 247 245 252 233 235 232 221 210 203 199 199 201 203 206 209 204 200 195 197
338 336 336 336 335 334 330 322 325 323 318 326 331 337 325 320 325 338 335 322 306 264 245 243 242 244 225 223 228 218 209 204 202 202 202 201 203 202 201 199 197 195 187
342 345 341 340 341 341 340 339 337 337 337 336 334 336 333 327 326 324 330 340 54 144 180 228 231 220 218 227 223 214 209 206 204 203 202 202 200 200 198 196 188 183 181
353 352 350 350 350 350 351 352 351 348 347 348 350 351 356 357 357 356 357 16 43 67 95 210 214 208 210 213 215 218 214 211 211 209 201 196 192 194 189 182 179 176 177
2 1 359 359 359 360 2 2 3 4 4 5 7 9 11 13 15 19 20 23 24 29 44 145 173 186 192 195 196 201 206 209 206 202 199 189 185 184 178 175 174 174 173
9 9 8 9 10 12 15 18 20 22 23 23 23 25 28 31 35 39 44 48 54 61 69 77 88 99 114 135 151 165 174 182 185 180 179 178 174 171 169 169 170 169 168
13 15 16 18 21 23 25 27 29 32 35 37 40 41 43 44 45 47 50 56 64 73 79 83 85 90 98 104 108 115 124 140 150 154 160 162 162 161 162 162 163 166 171
Wind_Speed_850mb
45 47 47 50 52 51 49 48 50 51 50 51 50 51 51 52 46 48 59 66 71 79 85 93 101 100 107 113 114 117 118 107 104 90 89 82 79 78 79 79 78 78 72
55 51 51 53 54 57 60 59 59 59 57 56 55 56 58 57 56 54 53 59 70 78 83 88 94 95 103 108 112 121 120 114 109 98 96 95 86 82 81 80 83 81 78
55 58 58 60 64 66 69 68 67 69 68 67 66 62 60 60 60 58 59 58 61 73 83 89 95 95 98 104 110 120 124 122 119 112 101 99 95 90 87 86 86 84 83
62 64 66 68 72 76 80 85 86 85 84 79 72 69 69 67 63 62 60 62 63 65 74 86 90 96 103 99 103 114 119 118 118 120 117 111 106 101 93 92 92 94 91
71 72 74 78 80 85 87 89 90 90 90 90 92 86 77 74 75 70 68 69 68 71 72 76 85 92 96 103 106 107 113 115 113 122 123 121 117 111 110 103 101 95 94
69 79 86 86 91 93 94 93 94 93 93 94 97 97 97 93 85 83 78 76 77 77 79 79 80 85 91 96 104 108 107 116 115 113 123 133 135 130 117 112 102 102 97
65 84 88 93 97 98 97 98 98 100 103 105 105 104 106 105 104 100 93 91 87 87 85 84 85 85 87 90 97 103 110 119 122 117 123 133 130 141 131 119 113 105 105
76 76 77 85 92 98 102 106 109 111 115 117 119 121 121 120 115 114 111 103 104 101 95 91 87 87 85 87 90 98 105 115 128 128 125 119 122 125 133 128 121 112 105
80 78 77 77 82 89 94 101 108 107 115 127 129 130 132 136 133 126 113 105 112 115 107 102 94 90 88 81 86 99 104 111 111 125 126 112 117 116 114 114 115 109 103
92 83 84 88 91 93 97 100 97 94 102 102 111 119 128 143 142 136 115 96 97 114 116 110 104 96 88 79 80 93 102 114 99 102 111 114 109 114 116 115 114 120 114
99 106 109 106 105 104 104 106 112 116 122 126 123 129 127 131 143 133 103 85 93 102 106 110 106 99 90 80 76 81 107 103 88 89 103 102 110 112 113 110 112 108 116
106 108 110 111 110 109 106 105 98 90 94 100 102 112 112 107 101 94 88 82 84 89 100 100 99 85 78 75 72 80 78 97 87 90 95 98 110 119 110 111 109 102 102
106 108 108 105 100 93 88 88 87 82 80 86 86 91 96 92 93 86 81 83 81 86 96 94 86 80 77 78 76 75 74 91 93 94 103 108 111 104 110 108 98 101 96
102 104 101 94 94 89 84 82 81 80 81 80 82 87 91 92 91 87 79 75 75 44 70 80 85 84 77 84 81 76 80 84 100 101 101 101 100 97 104 103 107 102 92
97 98 97 91 88 88 86 82 80 83 83 87 90 93 93 94 88 87 84 85 78 76 75 71 77 70 64 70 73 80 79 81 96 99 96 94 90 96 95 100 102 105 100
90 88 87 88 87 87 89 92 78 74 76 77 82 87 97 97 94 91 88 86 82 77 84 92 86 69 70 64 69 77 84 79 91 98 94 92 92 92 93 90 94 96 99
83 84 84 84 85 85 86 87 94 94 77 77 78 79 81 86 83 81 78 76 73 70 84 83 79 75 75 67 71 78 79 77 81 82 89 91 93 95 98 99 94 92 91
81 81 80 81 82 84 86 89 89 92 97 100 94 79 75 74 72 71 68 67 72 72 72 77 80 74 74 67 68 70 70 73 77 81 95 100 95 101 100 92 94 92 85
80 80 76 77 78 80 82 86 87 87 88 92 99 86 72 61 59 59 55 59 69 71 65 60 65 67 61 62 64 64 69 73 79 90 95 95 96 97 90 85 85 84 85
76 75 74 73 74 74 76 79 83 85 84 82 81 76 76 70 81 80 71 58 44 54 46 49 52 54 55 59 52 57 67 72 80 85 88 87 84 82 81 82 83 82 74
74 70 66 67 69 68 72 73 72 70 70 73 72 66 58 60 58 54 49 49 41 32 36 43 42 40 50 47 45 57 64 69 75 76 76 71 68 70 73 76 73 67 61
65 65 63 62 62 63 63 60 60 62 59 59 59 56 49 45 46 44 37 25 12 13 16 11 25 39 45 37 40 52 58 62 64 64 62 60 60 66 68 61 59 59 59
61 61 59 58 57 58 58 56 55 54 54 53 50 49 45 40 34 29 24 21 18 12 4 14 27 35 36 33 33 37 42 47 52 54 57 58 59 62 60 62 62 56 49
59 58 56 55 57 58 56 57 55 54 51 50 49 46 44 39 34 28 24 20 15 11 5 3 9 13 16 16 17 19 24 31 40 44 48 54 57 58 58 55 51 45 40
56 55 54 55 56 57 58 59 58 56 55 54 52 50 47 43 39 35 31 27 24 22 23 20 18 14 11 11 12 14 18 21 29 37 44 49 54 54 52 47 43 38 31
50 52 52 53 54 55 58 61 61 60 59 58 57 57 56 54 52 48 44 38 35 34 32 31 28 24 25 26 25 26 27 30 36 38 41 45 46 43 40 37 32 27 23
Wind_Direction_850mb
352 350 349 348 348 345 343 340 336 332 329 327 332 330 322 317 310 290 281 278 273 268 264 264 263 260 254 250 249 248 245 239 241 245 247 246 244 244 241 238 235 235 235
343 341 339 338 336 334 331 331 329 329 329 332 333 326 321 320 315 309 294 282 279 274 270 265 263 261 256 253 249 247 246 240 238 238 242 243 240 243 243 239 235 235 233
331 329 328 327 324 323 322 321 321 321 323 326 326 323 321 319 317 314 308 298 282 275 271 268 266 263 260 254 251 248 248 246 242 237 237 240 241 238 238 233 233 234 233
325 322 320 319 317 316 316 316 317 318 319 319 316 313 313 313 313 314 313 308 301 287 275 270 268 262 260 256 251 249 248 246 244 240 235 237 239 237 234 231 230 229 231
322 319 318 314 313 313 312 311 309 308 307 308 307 307 305 305 307 310 311 310 308 301 294 281 272 266 262 259 254 250 247 244 242 239 234 233 232 227 226 231 230 231 234
313 313 313 312 311 310 309 308 305 304 303 301 300 301 301 301 300 302 303 304 304 304 300 293 286 275 267 259 255 253 248 247 242 236 235 233 234 234 231 231 229 225 225
295 302 307 308 307 306 307 305 303 302 301 300 298 297 296 296 297 297 297 297 297 297 298 297 291 285 276 266 258 251 249 248 248 244 241 241 235 235 234 232 230 232 235
299 297 296 300 301 301 301 299 297 296 294 293 292 292 292 290 290 292 293 292 291 291 291 292 292 286 283 272 261 257 253 247 245 244 242 246 246 248 242 241 240 237 232
304 301 297 294 291 290 289 288 289 290 290 290 288 287 287 285 285 285 287 286 286 286 287 287 288 287 281 281 263 256 256 255 250 246 244 244 246 246 246 237 229 224 223
310 303 295 292 289 288 286 286 287 285 283 283 283 284 285 285 282 283 285 283 279 281 282 284 284 282 281 278 271 252 249 252 248 243 241 237 237 239 241 242 239 229 225
306 304 302 299 295 292 288 285 282 281 279 280 281 282 282 284 287 286 285 279 274 274 276 277 278 279 280 275 276 264 252 253 244 239 240 237 230 231 232 233 236 235 228
310 309 307 305 304 305 305 303 300 292 286 284 283 283 284 286 286 285 283 279 272 268 267 270 273 273 271 265 264 260 261 250 239 236 230 223 223 225 225 224 228 226 230
312 311 310 310 311 311 310 308 305 300 291 288 286 285 286 286 286 287 283 281 277 266 261 262 266 269 267 264 263 260 252 244 232 233 226 224 222 221 220 223 222 222 221
314 315 316 314 314 313 310 305 298 293 289 287 286 286 287 287 287 288 286 282 265 278 264 259 265 268 265 262 263 258 242 239 236 230 225 222 221 214 218 218 217 214 208
320 318 315 314 313 309 306 302 298 296 293 292 290 289 288 287 288 290 288 285 285 279 279 282 278 278 270 261 256 245 239 238 231 226 221 215 211 211 207 209 208 211 206
317 318 318 316 314 312 310 307 306 295 293 291 289 288 289 287 288 286 283 278 274 271 271 271 272 266 270 269 252 238 235 238 231 225 219 211 207 200 199 197 200 206 202
324 322 321 320 316 312 309 304 302 309 302 298 296 295 292 290 288 286 283 279 273 267 263 265 265 266 262 264 252 239 237 237 226 219 207 207 205 200 205 205 207 206 205
328 326 324 323 319 317 314 309 305 302 302 304 314 304 300 298 293 289 285 280 271 262 266 256 259 263 254 262 250 241 232 228 224 216 212 211 208 209 203 203 205 202 200
332 330 328 326 324 321 320 317 311 305 302 303 312 322 326 314 303 297 292 276 269 267 257 257 258 246 257 255 241 237 237 227 218 209 202 202 202 205 203 207 204 198 196
337 335 333 329 328 327 323 318 316 313 313 315 321 330 335 335 328 327 325 317 301 273 272 263 247 245 252 233 235 232 221 210 203 199 199 201 203 206 209 204 200 195 197
338 336 336 336 335 334 330 322 325 323 318 326 331 337 325 320 325 338 335 322 306 264 245 243 242 244 225 223 228 218 209 204 202 202 202 201 203 202 201 199 197 195 187
342 345 341 340 341 341 340 339 337 337 337 336 334 336 333 327 326 324 330 340 54 144 180 228 231 220 218 227 223 214 209 206 204 203 202 202 200 200 198 196 188 183 181
353 352 350 350 350 350 351 352 351 348 347 348 350 351 356 357 357 356 357 16 43 67 95 210 214 208 210 213 215 218 214 211 211 209 201 196 192 194 189 182 179 176 177
2 1 359 359 359 360 2 2 3 4 4 5 7 9 11 13 15 19 20 23 24 29 44 145 173 186 192 195 196 201 206 209 206 202 199 189 185 184 178 175 174 174 173
9 9 8 9 10 12 15 18 20 22 23 23 23 25 28 31 35 39 44 48 54 61 69 77 88 99 114 135 151 165 174 182 185 180 179 178 174 171 169 169 170 169 168
13 15 16 18 21 23 25 27 29 32 35 37 40 41 43 44 45 47 50 56 64 73 79 83 85 90 98 104 108 115 124 140 150 154 160 162 162 161 162 162 163 166 171